Regional Weather Roundup
Issued by NWS

Home | Current Version | Previous Version | Text Only | Print | Product List | Glossary On
Versions: 1 2 3 4 5 6 7 8 9 10 11 12 13 14 15 16 17 18 19 20 21 22 23 24 25 26 27 28 29 30 31 32 33 34 35 36 37 38 39 40 41 42 43 44 45 46 47 48 49 50
000
ASUS43 KDTX 300210
RWRMI
MICHIGAN HOURLY REGIONAL WEATHER ROUNDUP
NATIONAL WEATHER SERVICE DETROIT/PONTIAC MI
1000 PM EDT MON AUG 29 2016

NOTE: "FAIR" INDICATES FEW OR NO CLOUDS BELOW 12,000 FEET WITH NO
SIGNIFICANT WEATHER AND/OR OBSTRUCTION TO VISIBILITY.

MIZ047>049-052>055-059>063-066>070-074>076-081>083-300300-
SOUTHEAST LOWER MICHIGAN

CITY           SKY/WX    TMP DP  RH WIND       PRES   REMARKS
ADRIAN         CLEAR     70  65  84 SE3       30.23S
ALMA           CLEAR     69  69  99 CALM      30.22R
ANN ARBOR      CLEAR     66  66 100 CALM      30.22S
BAD AXE        CLEAR     64  60  85 SE3       30.23S
CARO           CLEAR     68  66  93 E5        30.22S
DETROIT CITY   CLEAR     73  62  68 CALM      30.22S
DETROIT        PTCLDY    73  68  84 CALM      30.22F
FLINT          CLEAR     71  64  78 CALM      30.22S
GROSSE ILE     CLEAR     71  67  89 CALM      30.22R
HILLSDALE      CLEAR     71  67  88 SE5       30.22F
HOWELL         CLEAR     69  66  88 CALM      30.22S

CITY           SKY/WX    TMP DP  RH WIND       PRES   REMARKS
JACKSON        CLEAR     72  68  87 SE5       30.22S
LAMBERTVILLE   CLEAR     66  64  93 CALM      30.22F
LANSING        CLEAR     73  66  78 CALM      30.21S
LAPEER         FAIR      66  65  96 CALM      30.23S
MASON          CLEAR     70  67  90 S10       30.22S
MONROE         CLEAR     66  66 100 SW6       30.21S
MT. CLEMENS    PTCLDY    72  63  74 E5        30.21R
PONTIAC        PTCLDY    74  64  71 SE5       30.22S
PORT HURON     CLEAR     61  61 100 CALM      30.23S
TRI CITIES     CLEAR     71  67  87 E3        30.22S
MIDLAND        FAIR      67  66  97 CALM      30.20S
TROY           CLEAR     76  58  54 CALM      30.24S
SAGINAW HB     CLEAR     68  64  88 CALM      30.21S
$$
MIZ043>046-050>051-056>058-064>065-071>073-077>080-300300-
SOUTHWEST LOWER MICHIGAN

CITY           SKY/WX    TMP DP  RH WIND       PRES   REMARKS
BATTLE CREEK   PTCLDY    73  70  90 S3        30.22R
BENTON HARBOR  PTCLDY    74  70  87 CALM      30.18S
BIG RAPIDS     PTCLDY    69  68  94 CALM      30.21S
COLDWATER      PTCLDY    71  70  99 SE5       30.21S
FREMONT        FAIR      71  70  98 CALM      30.20S
HOLLAND        CLOUDY    73  69  87 CALM      30.19F
GRAND RAPIDS   CLOUDY    73  68  84 E5        30.20S
IONIA          FAIR      70  65  86 E3        30.20S
KALAMAZOO      CLOUDY    76  69  79 CALM      30.20S
LUDINGTON        N/A     67  67 100 CALM      30.18F FOG
MARSHALL       CLEAR     71  71  98 CALM      30.21S
MOUNT PLEASANT CLEAR     68  67  97 CALM      30.21S
MUSKEGON       MOCLDY    73  70  90 CALM      30.19S
SOUTH HAVEN    CLOUDY    74  73  95 CALM      30.18F
$$
MIZ016>042-300300-
NORTHERN LOWER MICHIGAN

CITY           SKY/WX    TMP DP  RH WIND       PRES   REMARKS
ALPENA         CLEAR     65  59  81 CALM      30.20S
BEAVER ISLAND  CLEAR     70  66  86 S8        30.15F
BELLAIRE       CLOUDY    68  65  91 CALM      30.18F
CADILLAC       PTCLDY    69  65  89 CALM      30.21S
CHARLEVOIX     CLOUDY    71  66  82 S6        30.19F
FRANKFORT      PTCLDY    69  65  90 CALM      30.17F
GAYLORD        PTCLDY    71  62  73 SW3       30.21F
GRAYLING       PTCLDY    68  64  87 CALM      30.21F
HARBOR SPRINGS PTCLDY    69  65  87 CALM      30.17F
HOUGHTON LAKE  CLEAR     65  63  93 CALM      30.22F
MANISTEE       PTCLDY    66  66 100 CALM      30.17F FOG
OSCODA         CLEAR     66  61  85 CALM      30.20S
PELLSTON       MOCLDY    67  62  84 SW3       30.17F
ROGERS CITY    CLEAR     68  60  77 S5        30.19S
TRAVERSE CITY  PTCLDY    74  67  78 SE3       30.16F
$$
MIZ007>008-015-300300-
EASTERN UPPER MICHIGAN

CITY           SKY/WX    TMP DP  RH WIND       PRES   REMARKS
KINROSS        PTCLDY    66  61  84 SE8       30.17F
MACKINAC ISLAN CLOUDY    64  64 100 SE7       30.16F
NEWBERRY       CLOUDY    67  65  95 S3        30.15S
S. S. MARIE    CLOUDY    68  61  78 SE3       30.16F
$$
MIZ004>006-011>014-085-300300-
CENTRAL UPPER MICHIGAN

CITY           SKY/WX    TMP DP  RH WIND       PRES   REMARKS
MANISTIQUE     CLOUDY    69  67  92 S3        30.13F
ESCANABA       PTCLDY    73  69  87 SW8       30.12F
MENOMINEE      PTCLDY   N/A N/A N/A SW7       30.14
SAWYER-GWINN   CLEAR     72  68  88 S7        30.13F
$$
MIZ001>003-009>011-084-300300-
WESTERN UPPER MICHIGAN

CITY           SKY/WX    TMP DP  RH WIND       PRES   REMARKS
IRON MOUNTAIN  CLOUDY    71  68  90 CALM      30.13S
HOUGHTON       PTCLDY    70  61  73 NW8       30.09S
IRONWOOD       TSTM      67  65  93 W6        30.15R
$$

ABBREVIATIONS USED IN REMARKS
   TC - TEMPERATURE IN CELSIUS
  WCI - WIND CHILL INDEX
   HX - HEAT INDEX
  VSB - VISIBILITY





USA.gov is the U.S. government's official web portal to all federal, state and local government web resources and services.